This is the latest recevied weather packets stored in our database for station/object KA3WVU. If no packets are shown the sender has not sent any weather packets the latest 10 day(s).
| Time | Temp. | Humidity | Pressure | Rain* | Wind** | Luminosity | Snow |
|---|---|---|---|---|---|---|---|
| 1777768259 | 2.22° C | 71% | 1013.2 hPa | 0 mm | - | 0 W/m² | - |
| 1777767956 | 2.22° C | 73% | 1013.3 hPa | 0 mm | - | 0 W/m² | - |
| 1777767653 | 2.22° C | 73% | 1013.4 hPa | 0 mm | - | 0 W/m² | - |
| 1777767349 | 2.22° C | 73% | 1013.3 hPa | 0 mm | - | 0 W/m² | - |
| 1777767046 | 2.22° C | 74% | 1013.2 hPa | 0 mm | - | 1 W/m² | - |
| 1777766744 | 2.22° C | 74% | 1013.2 hPa | 0 mm | - | 1 W/m² | - |
| 1777766441 | 2.22° C | 73% | 1013.4 hPa | 0 mm | - | 1 W/m² | - |
| 1777766137 | 2.78° C | 72% | 1013.3 hPa | 0 mm | - | 2 W/m² | - |
| 1777765835 | 2.78° C | 71% | 1013.2 hPa | 0 mm | - | 2 W/m² | - |
| 1777765531 | 2.78° C | 71% | 1013.1 hPa | 0 mm | - | 3 W/m² | - |
| 1777765229 | 2.78° C | 70% | 1013 hPa | 0 mm | - | 4 W/m² | - |
| 1777764929 | 2.78° C | 71% | 1013 hPa | 0 mm | - | 6 W/m² | - |
| 1777764627 | 2.78° C | 73% | 1013 hPa | 0 mm | - | 7 W/m² | - |
| 1777764323 | 3.33° C | 72% | 1013 hPa | 0 mm | - | 9 W/m² | - |
| 1777764020 | 3.33° C | 72% | 1013.1 hPa | 0 mm | - | 9 W/m² | - |
| 1777763717 | 3.33° C | 74% | 1013 hPa | 0 mm | - | 15 W/m² | - |
| 1777763415 | 3.33° C | 72% | 1013.1 hPa | 0 mm | - | 18 W/m² | - |
| 1777763113 | 3.33° C | 72% | 1012.9 hPa | 0 mm | - | 23 W/m² | - |
| 1777762811 | 3.33° C | 71% | 1013.1 hPa | 0 mm | - | 30 W/m² | - |
| 1777762506 | 3.33° C | 72% | 1012.9 hPa | 0 mm | - | 34 W/m² | - |
| 1777762204 | 3.33° C | 72% | 1013 hPa | 0 mm | - | 34 W/m² | - |
| 1777761900 | 3.33° C | 73% | 1013 hPa | 0 mm | - | 33 W/m² | - |
| 1777761596 | 3.33° C | 74% | 1013 hPa | 0 mm | - | 34 W/m² | - |
| 1777761294 | 3.33° C | 73% | 1012.9 hPa | 0 mm | - | 35 W/m² | - |
| 1777760992 | 3.33° C | 73% | 1013 hPa | 0 mm | - | 38 W/m² | - |
* Rain latest hour (hover to see other rain measurements)
** Current wind speed in m/s (hover to see current wind gust speed)